Temp
-7 -7 -7 -7 -7 -7 -6 -7 -7 -6 -6 -6 -6 -6 -6 -7 -7 -6 -6 -5 -7 -6 -7 -6 -6 -6 -5 -5 -5 -5 -5 -5 -5 -5 -5 -5 -5 -6 -6 -6 -6 -6 -6 -6 -6 -6 -6 -6 -6
-7 -7 -7 -7 -7 -7 -7 -7 -7 -7 -7 -7 -6 -6 -6 -6 -6 -6 -5 -6 -6 -7 -7 -7 -7 -6 -6 -6 -6 -6 -6 -6 -6 -6 -6 -6 -6 -6 -6 -7 -7 -7 -7 -6 -6 -6 -6 -6 -6
-8 -8 -7 -7 -7 -8 -8 -7 -7 -7 -7 -7 -7 -7 -6 -6 -6 -6 -5 -5 -7 -9 -8 -7 -7 -7 -7 -7 -7 -7 -7 -7 -6 -7 -7 -7 -7 -7 -7 -7 -7 -7 -7 -7 -7 -7 -7 -7 -7
-8 -8 -8 -8 -8 -8 -8 -8 -8 -8 -8 -8 -7 -7 -7 -7 -6 -6 -6 -5 -7 -8 -8 -8 -7 -7 -7 -7 -7 -7 -7 -7 -7 -7 -7 -7 -7 -7 -7 -7 -7 -7 -7 -7 -7 -7 -8 -8 -7
-8 -8 -8 -8 -8 -9 -9 -9 -9 -8 -8 -8 -7 -8 -7 -8 -7 -7 -8 -7 -8 -9 -8 -8 -8 -7 -7 -7 -7 -8 -8 -8 -8 -8 -8 -8 -8 -8 -7 -7 -7 -7 -7 -7 -7 -7 -7 -8 -8
-8 -9 -9 -9 -9 -9 -9 -9 -9 -9 -8 -8 -8 -8 -8 -8 -8 -8 -8 -8 -9 -8 -8 -8 -8 -8 -8 -8 -8 -8 -8 -8 -8 -8 -8 -8 -8 -8 -8 -8 -8 -8 -9 -8 -8 -8 -7 -7 -7
-8 -8 -9 -9 -9 -9 -9 -9 -10 -9 -9 -9 -9 -8 -8 -8 -8 -8 -8 -8 -8 -8 -8 -9 -9 -8 -8 -8 -8 -8 -8 -9 -9 -9 -9 -9 -9 -9 -9 -9 -9 -9 -8 -8 -9 -9 -9 -8 -8
-7 -8 -9 -10 -10 -9 -9 -9 -9 -10 -9 -9 -9 -9 -9 -9 -8 -8 -8 -8 -8 -8 -8 -9 -9 -8 -8 -8 -8 -8 -9 -9 -9 -9 -9 -9 -9 -9 -9 -9 -9 -10 -9 -9 -9 -9 -9 -9 -9
-7 -8 -9 -10 -10 -9 -9 -9 -9 -10 -9 -9 -9 -9 -8 -9 -9 -9 -8 -8 -8 -9 -9 -8 -8 -8 -9 -8 -9 -9 -9 -9 -10 -9 -9 -10 -10 -10 -10 -10 -9 -9 -9 -10 -9 -10 -9 -9 -9
-7 -8 -9 -9 -9 -9 -9 -9 -9 -9 -9 -9 -10 -9 -8 -9 -9 -10 -10 -9 -9 -9 -9 -9 -9 -9 -9 -9 -9 -9 -10 -9 -9 -10 -10 -10 -10 -10 -11 -10 -10 -10 -10 -10 -9 -10 -9 -9 -10
-8 -8 -8 -8 -8 -8 -8 -9 -9 -9 -9 -9 -10 -9 -9 -9 -9 -10 -10 -10 -10 -9 -9 -9 -9 -10 -9 -9 -10 -10 -11 -11 -11 -11 -11 -11 -11 -11 -11 -11 -11 -11 -10 -10 -10 -10 -9 -9 -9
-8 -8 -8 -8 -8 -8 -8 -9 -9 -10 -9 -10 -10 -10 -10 -10 -10 -10 -10 -10 -9 -9 -9 -10 -10 -10 -10 -10 -10 -11 -11 -11 -11 -11 -12 -12 -12 -11 -11 -11 -11 -11 -11 -11 -11 -10 -10 -10 -10
-8 -8 -8 -8 -8 -8 -9 -9 -10 -10 -10 -10 -10 -10 -10 -10 -10 -10 -10 -10 -10 -10 -10 -10 -10 -10 -10 -11 -11 -11 -11 -12 -12 -11 -12 -12 -12 -12 -12 -12 -12 -12 -12 -12 -12 -11 -11 -10 -10
-8 -8 -8 -9 -9 -9 -10 -10 -10 -10 -10 -10 -11 -10 -10 -10 -11 -10 -10 -10 -11 -11 -11 -11 -11 -11 -11 -11 -11 -11 -12 -12 -12 -12 -12 -12 -12 -12 -12 -12 -12 -12 -12 -12 -12 -12 -11 -11 -10
-8 -8 -9 -9 -9 -10 -10 -10 -10 -11 -10 -11 -11 -11 -11 -11 -11 -11 -10 -11 -11 -11 -11 -11 -11 -11 -11 -11 -11 -11 -11 -11 -11 -11 -12 -12 -12 -12 -12 -13 -13 -12 -12 -12 -12 -12 -12 -12 -11
-8 -8 -9 -9 -9 -9 -9 -10 -10 -11 -11 -11 -11 -11 -11 -11 -11 -11 -11 -11 -11 -11 -11 -11 -11 -11 -11 -11 -11 -11 -12 -12 -12 -12 -12 -12 -12 -13 -13 -13 -13 -12 -12 -12 -12 -12 -12 -12 -12
-8 -8 -8 -9 -9 -10 -9 -10 -10 -10 -11 -11 -11 -11 -11 -12 -12 -12 -12 -12 -12 -12 -12 -12 -12 -12 -12 -12 -12 -12 -12 -11 -12 -12 -12 -12 -12 -13 -13 -13 -13 -13 -13 -12 -12 -12 -12 -12 -12
-8 -8 -8 -8 -9 -9 -10 -10 -11 -11 -11 -11 -11 -11 -12 -12 -12 -12 -12 -12 -12 -12 -12 -12 -12 -12 -12 -12 -12 -11 -11 -12 -12 -12 -12 -12 -12 -13 -13 -13 -13 -13 -13 -13 -13 -13 -12 -12 -12
-9 -9 -9 -9 -9 -9 -10 -10 -11 -11 -11 -11 -11 -12 -12 -12 -12 -12 -12 -12 -12 -12 -12 -12 -12 -12 -12 -12 -12 -12 -11 -12 -12 -12 -12 -12 -12 -12 -12 -13 -13 -13 -13 -13 -12 -12 -12 -12 -11
-9 -9 -10 -10 -10 -10 -10 -11 -11 -11 -11 -12 -12 -12 -12 -12 -12 -12 -12 -12 -12 -12 -12 -13 -13 -12 -12 -12 -12 -12 -12 -12 -12 -12 -12 -12 -12 -12 -12 -12 -12 -13 -13 -12 -12 -12 -12 -12 -12
-10 -10 -10 -10 -10 -11 -11 -11 -11 -12 -12 -12 -12 -12 -12 -12 -13 -13 -13 -13 -13 -12 -13 -13 -13 -13 -13 -13 -12 -12 -12 -12 -12 -13 -13 -12 -12 -13 -13 -13 -13 -13 -13 -12 -12 -12 -12 -12 -12
-10 -10 -11 -11 -11 -11 -11 -11 -11 -12 -12 -12 -12 -12 -13 -13 -13 -13 -13 -13 -13 -13 -13 -13 -13 -13 -12 -12 -12 -12 -12 -12 -12 -12 -12 -12 -12 -12 -12 -12 -12 -12 -12 -12 -12 -12 -12 -12 -13
-11 -11 -11 -11 -12 -11 -12 -12 -12 -12 -12 -13 -12 -13 -13 -13 -13 -13 -14 -14 -14 -13 -13 -13 -13 -13 -13 -13 -13 -13 -13 -12 -13 -12 -12 -12 -12 -12 -12 -12 -12 -12 -12 -13 -13 -13 -13 -12 -13
-11 -11 -12 -12 -12 -12 -12 -12 -12 -12 -13 -13 -13 -13 -13 -13 -14 -14 -14 -13 -14 -13 -13 -14 -13 -13 -13 -13 -13 -13 -12 -13 -13 -13 -13 -12 -12 -12 -12 -12 -12 -13 -13 -13 -13 -13 -13 -13 -13
-11 -12 -12 -12 -12 -12 -12 -12 -12 -12 -12 -13 -13 -13 -14 -14 -13 -14 -14 -14 -14 -14 -14 -14 -14 -14 -14 -13 -13 -13 -13 -13 -13 -13 -13 -12 -12 -12 -12 -13 -13 -13 -13 -14 -14 -13 -13 -13 -13
-12 -12 -13 -12 -12 -12 -12 -12 -12 -12 -13 -13 -13 -13 -13 -13 -13 -14 -14 -14 -14 -14 -14 -14 -14 -14 -14 -14 -13 -13 -13 -13 -13 -13 -13 -13 -13 -13 -13 -13 -13 -14 -14 -14 -14 -14 -13 -13 -13
-12 -13 -13 -13 -13 -12 -12 -12 -12 -12 -13 -13 -13 -13 -13 -13 -14 -14 -14 -14 -14 -14 -15 -14 -14 -14 -14 -14 -14 -14 -14 -14 -14 -14 -14 -14 -13 -13 -14 -14 -14 -14 -14 -14 -14 -14 -14 -14 -14
-13 -13 -13 -13 -13 -13 -12 -12 -13 -13 -13 -13 -13 -13 -13 -13 -13 -14 -14 -14 -14 -15 -15 -15 -14 -14 -14 -15 -15 -14 -14 -14 -14 -14 -14 -14 -14 -14 -14 -14 -14 -14 -14 -14 -14 -14 -14 -14 -14
-13 -13 -13 -14 -13 -13 -12 -12 -13 -13 -13 -13 -13 -13 -13 -13 -13 -14 -14 -14 -15 -15 -15 -15 -15 -15 -15 -15 -15 -15 -15 -15 -15 -15 -14 -14 -14 -14 -14 -14 -14 -14 -14 -14 -14 -14 -14 -14 -14
-13 -13 -14 -14 -13 -13 -13 -12 -13 -13 -13 -13 -13 -13 -13 -13 -14 -14 -15 -15 -15 -15 -15 -15 -15 -15 -16 -16 -17 -18 -17 -16 -16 -15 -15 -15 -15 -15 -14 -14 -14 -14 -14 -14 -14 -14 -14 -14 -14
Height
5916 5915 5916 5917 5917 5916 5918 5917 5915 5917 5917 5916 5916 5915 5913 5913 5913 5914 5911 5909 5907 5907 5906 5908 5909 5910 5909 5909 5910 5911 5912 5912 5912 5911 5911 5910 5910 5909 5908 5908 5909 5908 5908 5909 5909 5910 5909 5909 5908
5915 5914 5915 5916 5915 5915 5917 5915 5914 5916 5916 5915 5916 5915 5912 5911 5909 5907 5905 5903 5902 5903 5904 5904 5905 5906 5906 5907 5908 5908 5908 5909 5909 5909 5908 5907 5907 5907 5906 5906 5906 5906 5905 5905 5906 5906 5907 5907 5907
5914 5914 5914 5915 5914 5914 5915 5914 5915 5913 5915 5916 5915 5915 5912 5910 5908 5905 5904 5900 5898 5897 5898 5899 5900 5901 5900 5901 5902 5903 5903 5903 5904 5904 5903 5903 5903 5903 5902 5902 5902 5902 5901 5901 5901 5901 5902 5902 5903
5911 5912 5912 5911 5913 5913 5912 5913 5914 5912 5914 5915 5913 5913 5911 5908 5907 5905 5901 5898 5895 5895 5896 5897 5897 5900 5900 5899 5899 5900 5900 5900 5899 5898 5898 5898 5898 5898 5897 5897 5896 5896 5895 5894 5894 5895 5895 5896 5896
5910 5910 5908 5908 5909 5911 5911 5911 5911 5910 5910 5912 5912 5910 5909 5907 5905 5903 5901 5899 5898 5900 5901 5901 5900 5900 5899 5897 5897 5897 5896 5896 5896 5896 5895 5894 5894 5894 5893 5892 5892 5892 5891 5889 5888 5887 5888 5888 5889
5910 5909 5906 5905 5906 5907 5906 5908 5909 5909 5908 5908 5909 5908 5907 5905 5903 5902 5902 5900 5900 5900 5899 5898 5897 5897 5896 5894 5893 5892 5891 5891 5890 5890 5888 5887 5887 5887 5887 5886 5885 5884 5883 5884 5884 5884 5883 5882 5881
5906 5907 5906 5902 5903 5903 5903 5905 5906 5906 5906 5906 5905 5907 5906 5904 5901 5902 5901 5900 5898 5897 5896 5895 5894 5893 5892 5891 5889 5888 5888 5887 5887 5886 5885 5884 5883 5882 5881 5882 5881 5880 5879 5876 5875 5875 5875 5874 5873
5900 5901 5904 5900 5899 5901 5902 5902 5902 5903 5904 5904 5904 5903 5901 5900 5900 5899 5897 5896 5895 5894 5893 5892 5891 5889 5888 5887 5885 5883 5882 5882 5881 5880 5879 5878 5877 5876 5875 5874 5873 5872 5872 5870 5869 5866 5864 5865 5864
5896 5897 5899 5898 5897 5898 5901 5901 5901 5901 5902 5902 5902 5899 5896 5895 5894 5893 5893 5892 5891 5891 5890 5888 5886 5885 5885 5882 5881 5880 5878 5878 5877 5876 5874 5872 5871 5869 5867 5866 5866 5864 5862 5861 5859 5858 5855 5854 5854
5892 5893 5892 5892 5894 5896 5898 5897 5899 5900 5899 5899 5899 5895 5895 5894 5892 5890 5890 5891 5890 5889 5886 5885 5884 5883 5881 5878 5876 5876 5873 5871 5870 5868 5866 5865 5864 5862 5860 5858 5856 5854 5852 5850 5848 5847 5845 5844 5842
5889 5888 5887 5888 5891 5893 5894 5895 5897 5897 5896 5897 5896 5893 5893 5891 5890 5889 5889 5888 5886 5884 5882 5881 5879 5879 5876 5874 5872 5870 5868 5866 5864 5862 5860 5858 5857 5855 5852 5850 5848 5845 5843 5841 5838 5837 5836 5833 5833
5885 5885 5885 5887 5889 5891 5892 5894 5894 5894 5894 5895 5893 5892 5890 5889 5889 5888 5886 5885 5884 5881 5879 5878 5877 5875 5873 5871 5869 5866 5864 5861 5859 5857 5855 5852 5850 5848 5847 5844 5841 5837 5833 5831 5829 5828 5827 5823 5823
5880 5882 5882 5885 5886 5888 5890 5890 5891 5891 5891 5893 5889 5889 5889 5888 5887 5886 5884 5882 5880 5878 5877 5876 5874 5872 5870 5868 5866 5863 5860 5857 5855 5852 5849 5846 5843 5841 5839 5836 5833 5830 5827 5825 5821 5819 5818 5816 5815
5878 5879 5879 5882 5883 5885 5887 5888 5888 5888 5889 5890 5887 5886 5885 5885 5884 5883 5880 5879 5877 5876 5874 5872 5871 5868 5866 5863 5861 5858 5855 5852 5848 5845 5842 5839 5836 5834 5832 5829 5827 5825 5821 5817 5814 5812 5810 5807 5805
5875 5876 5877 5879 5881 5883 5884 5885 5885 5886 5886 5887 5885 5882 5882 5881 5880 5879 5877 5876 5875 5873 5871 5869 5866 5864 5861 5858 5855 5851 5848 5844 5841 5838 5835 5831 5828 5826 5824 5821 5819 5817 5814 5811 5807 5803 5801 5799 5796
5872 5874 5875 5876 5877 5880 5881 5882 5882 5882 5884 5883 5883 5881 5879 5878 5877 5875 5874 5872 5869 5867 5865 5863 5861 5858 5855 5852 5849 5845 5841 5838 5834 5830 5827 5823 5820 5817 5814 5812 5810 5807 5805 5802 5799 5796 5793 5790 5788
5868 5869 5870 5872 5873 5875 5877 5878 5879 5880 5880 5879 5878 5877 5876 5876 5874 5872 5871 5869 5866 5863 5860 5858 5855 5853 5850 5847 5843 5839 5834 5829 5825 5821 5818 5814 5811 5808 5805 5803 5800 5798 5795 5792 5789 5786 5784 5782 5779
5864 5865 5867 5869 5871 5871 5873 5875 5875 5876 5876 5875 5874 5874 5873 5872 5871 5869 5866 5864 5861 5858 5855 5853 5850 5847 5843 5839 5836 5832 5828 5822 5817 5813 5809 5805 5802 5798 5795 5792 5789 5786 5784 5781 5778 5775 5772 5770 5769
5861 5863 5864 5866 5867 5868 5870 5871 5872 5872 5872 5872 5871 5870 5868 5867 5865 5863 5861 5858 5855 5851 5847 5844 5841 5838 5834 5831 5828 5824 5820 5814 5809 5805 5801 5796 5793 5790 5786 5783 5779 5775 5772 5771 5769 5766 5763 5760 5757
5859 5860 5861 5863 5864 5865 5866 5868 5869 5869 5868 5868 5868 5866 5864 5862 5860 5858 5855 5851 5848 5844 5841 5837 5834 5831 5828 5824 5820 5816 5811 5806 5800 5796 5792 5788 5784 5780 5776 5773 5770 5766 5763 5761 5759 5756 5753 5750 5747
5856 5857 5858 5860 5861 5862 5862 5863 5864 5865 5864 5864 5863 5861 5859 5857 5855 5852 5848 5843 5841 5837 5834 5830 5827 5823 5819 5815 5811 5806 5802 5797 5792 5787 5783 5779 5774 5770 5766 5763 5760 5757 5754 5752 5750 5747 5743 5741 5737
5852 5854 5856 5857 5858 5859 5860 5860 5860 5860 5860 5859 5857 5855 5854 5852 5848 5844 5840 5836 5833 5830 5827 5823 5819 5814 5810 5805 5800 5795 5790 5785 5781 5776 5772 5768 5765 5761 5757 5753 5750 5747 5745 5742 5739 5737 5734 5731 5728
5850 5850 5853 5854 5854 5855 5855 5855 5855 5855 5854 5854 5850 5849 5847 5844 5840 5837 5833 5830 5826 5821 5817 5813 5809 5805 5799 5795 5790 5785 5780 5775 5770 5766 5762 5758 5754 5750 5747 5743 5740 5737 5735 5732 5730 5728 5726 5724 5721
5846 5848 5848 5849 5850 5850 5849 5849 5850 5850 5850 5848 5845 5843 5840 5837 5835 5831 5826 5822 5817 5813 5809 5805 5801 5796 5790 5785 5781 5776 5770 5764 5759 5755 5751 5747 5743 5739 5736 5734 5731 5728 5726 5725 5723 5721 5719 5717 5714
5842 5843 5844 5845 5844 5844 5843 5843 5844 5843 5842 5840 5839 5836 5833 5831 5828 5823 5818 5814 5809 5806 5802 5796 5791 5786 5780 5774 5769 5763 5759 5754 5750 5745 5741 5738 5734 5731 5728 5726 5724 5723 5722 5720 5718 5715 5712 5709 5706
5838 5839 5840 5839 5839 5839 5838 5838 5838 5836 5834 5833 5831 5829 5827 5824 5820 5815 5810 5806 5802 5798 5792 5786 5780 5775 5769 5763 5757 5752 5748 5744 5741 5737 5734 5730 5727 5725 5723 5721 5720 5719 5717 5715 5713 5710 5707 5703 5699
5834 5835 5835 5835 5835 5835 5835 5835 5833 5831 5828 5826 5825 5823 5820 5817 5813 5809 5804 5800 5796 5790 5784 5777 5771 5765 5758 5752 5746 5742 5738 5735 5733 5730 5728 5725 5723 5721 5720 5718 5717 5715 5713 5711 5708 5704 5700 5696 5691
5829 5830 5830 5830 5830 5830 5830 5830 5827 5825 5822 5820 5818 5816 5812 5809 5806 5802 5798 5794 5788 5781 5775 5769 5762 5755 5748 5742 5737 5732 5729 5727 5725 5724 5723 5721 5719 5718 5716 5715 5714 5712 5709 5706 5702 5698 5694 5689 5683
5824 5825 5826 5826 5826 5824 5824 5823 5820 5818 5816 5815 5812 5809 5806 5803 5800 5796 5792 5786 5780 5774 5767 5760 5753 5746 5739 5733 5728 5722 5720 5718 5718 5718 5717 5717 5716 5715 5714 5712 5710 5708 5704 5701 5697 5692 5686 5681 5675
5819 5820 5821 5821 5821 5819 5818 5818 5814 5811 5811 5809 5806 5802 5800 5797 5794 5790 5785 5780 5774 5767 5760 5753 5745 5738 5732 5726 5719 5714 5710 5711 5712 5712 5713 5713 5713 5712 5711 5708 5706 5703 5700 5695 5690 5685 5679 5673 5665
Wind_Speed
3 5 4 5 8 7 5 9 10 10 13 13 18 19 14 7 10 12 17 13 4 5 12 11 10 13 14 15 15 15 15 15 14 14 13 13 12 12 12 12 13 14 14 15 15 15 15 14 14
5 7 7 6 10 8 7 10 13 13 12 14 14 15 11 12 16 15 12 11 7 10 13 7 9 13 11 11 12 13 15 16 17 16 16 15 14 14 14 14 14 15 16 17 17 17 17 16 17
7 8 11 9 12 11 10 13 14 13 13 15 12 15 11 13 15 15 13 11 2 15 14 13 12 13 10 6 6 8 9 10 12 14 15 16 16 15 15 16 17 18 18 19 19 19 19 19 19
8 10 14 14 12 14 15 12 12 18 19 12 18 18 12 19 15 16 15 11 6 19 18 17 14 10 8 8 6 8 9 11 12 12 13 14 15 17 18 19 21 22 22 22 22 22 21 21 22
8 11 15 18 17 14 15 15 16 23 24 21 18 18 14 24 16 20 17 9 9 9 10 7 7 10 11 12 12 12 11 13 15 16 16 17 19 21 21 21 22 25 27 28 28 27 27 27 26
14 12 17 20 20 16 16 18 24 20 24 22 18 20 19 21 15 13 9 2 6 8 8 6 9 9 13 14 16 18 18 19 20 20 20 20 21 23 25 25 26 27 29 31 33 35 36 36 35
27 24 20 23 23 24 24 23 20 21 23 23 22 20 21 16 15 12 6 5 8 13 12 13 15 16 15 15 17 19 22 23 23 25 25 25 27 28 28 30 32 34 34 34 34 36 38 39 40
20 24 26 23 27 28 26 28 28 24 24 21 21 24 19 17 13 11 11 10 12 14 16 21 21 18 21 17 16 16 19 22 21 21 24 29 31 32 32 32 32 35 39 41 40 39 41 43 43
15 18 20 28 31 32 30 28 29 26 24 23 21 21 22 18 15 9 6 9 14 15 17 16 20 22 20 18 21 21 22 24 24 25 27 26 26 29 34 35 36 35 37 40 43 47 49 48 46
14 14 19 29 32 32 30 30 27 26 26 23 21 23 23 19 12 8 7 5 8 12 14 15 16 17 16 16 17 21 23 26 28 27 29 29 31 33 35 37 37 40 39 42 44 47 45 46 47
16 19 23 24 24 24 28 27 26 26 24 21 22 23 21 17 13 13 11 9 8 7 8 9 12 14 16 18 19 20 20 22 25 28 30 32 34 35 36 39 39 41 42 41 38 40 43 47 48
19 22 23 23 22 22 22 22 24 24 23 21 22 20 15 12 10 10 11 11 10 8 8 10 12 14 17 19 21 23 24 27 28 28 30 33 34 36 36 35 36 35 36 35 35 36 37 38 41
20 20 23 22 22 20 21 23 24 25 25 21 24 21 14 10 10 9 9 11 9 6 7 10 13 15 18 22 23 25 26 27 29 31 31 32 34 34 34 33 29 29 32 32 34 33 34 34 33
16 18 22 22 22 24 24 26 27 28 26 23 23 18 17 15 13 13 11 10 10 11 12 17 20 21 22 25 27 27 28 30 34 32 32 34 37 36 33 33 30 32 31 34 35 35 35 34 35
17 17 19 21 26 29 28 29 32 30 27 23 19 18 17 15 18 17 16 14 12 15 20 21 20 22 23 25 29 31 31 30 31 33 34 36 37 37 36 36 37 37 37 36 37 38 39 36 35
18 18 18 20 22 24 26 30 30 29 22 22 17 16 18 17 20 18 19 20 21 22 20 19 23 26 28 29 33 35 36 35 35 35 35 36 39 39 39 40 41 42 43 43 43 40 39 42 39
23 23 24 23 23 25 26 28 31 29 25 21 20 17 15 17 18 20 22 24 24 25 24 27 27 30 31 31 36 37 40 41 37 37 38 37 37 40 42 44 45 46 46 47 44 44 42 42 43
25 27 25 23 22 23 23 22 25 23 17 19 19 17 14 17 21 22 25 26 30 33 32 32 31 33 35 35 38 41 41 39 38 39 38 39 38 38 39 41 44 48 48 45 42 41 41 41 42
22 23 22 21 23 23 19 18 19 19 19 20 19 17 19 20 24 26 29 31 34 36 37 37 34 33 32 36 39 42 42 43 40 38 38 39 39 39 39 40 40 39 39 42 42 41 41 42 43
20 20 20 22 22 21 17 17 18 19 19 21 21 21 23 26 26 28 29 36 41 37 37 35 35 38 37 38 42 44 44 42 39 38 38 38 39 40 39 39 38 37 35 37 39 40 41 41 43
19 21 21 22 22 21 23 21 20 21 21 23 24 26 28 29 30 31 39 42 43 34 34 37 42 45 43 44 44 43 43 41 37 37 37 37 38 39 39 38 38 38 38 38 38 38 39 39 41
18 21 23 23 23 23 25 24 20 21 24 26 29 32 29 30 32 36 42 42 38 38 41 47 48 48 46 44 41 43 45 43 40 37 35 35 36 37 37 37 37 36 36 36 36 36 35 34 32
23 22 22 24 25 26 27 26 22 22 25 29 33 33 33 33 35 39 38 38 40 45 46 44 47 47 44 44 45 47 45 42 40 37 35 36 36 36 35 36 36 36 35 33 31 27 25 25 25
22 22 22 23 24 23 22 25 26 27 28 31 35 35 36 33 34 35 37 40 43 44 45 45 45 44 45 46 45 44 44 42 40 37 37 38 36 36 36 35 34 32 27 22 21 21 22 24 26
21 21 20 19 19 19 21 23 23 25 26 28 29 29 30 31 34 35 39 42 43 44 44 45 45 46 47 48 47 45 43 41 38 37 35 35 35 33 30 24 18 17 17 17 20 23 25 26 27
20 18 16 19 19 20 20 21 21 23 24 25 25 27 28 30 33 36 39 40 42 42 44 45 47 49 48 48 47 45 42 38 34 32 31 30 25 20 17 17 15 13 15 19 21 22 25 28 30
16 13 17 19 20 20 20 19 21 22 24 24 25 25 27 30 32 34 37 39 40 42 44 46 48 49 48 46 45 42 38 34 29 27 24 20 18 15 13 10 10 15 19 20 21 24 27 31 34
18 19 21 20 21 19 18 18 20 21 23 24 24 26 29 30 32 33 35 37 40 43 45 46 46 45 45 41 38 37 35 30 25 23 20 16 13 10 6 9 14 17 18 22 25 29 32 34 35
19 20 18 20 18 21 23 25 21 20 21 21 22 26 27 30 32 33 35 37 39 41 42 43 43 42 37 36 36 36 31 24 20 14 12 9 6 6 9 13 15 17 21 25 29 30 31 33 37
18 16 17 18 22 25 28 21 20 22 20 21 24 27 28 29 30 33 34 35 37 38 39 40 38 35 32 31 31 29 19 15 11 7 4 4 5 8 11 13 17 21 24 26 27 30 33 37 41
Wind_Direction
215 228 229 251 259 271 292 284 297 319 330 5 23 21 39 356 353 328 324 347 343 256 227 236 255 256 253 252 253 259 265 265 263 258 258 263 266 264 261 263 269 273 277 282 285 289 290 287 285
226 241 236 242 260 271 274 285 303 326 339 358 15 13 34 14 17 15 357 330 282 217 213 220 253 247 243 252 259 264 270 275 275 271 267 265 266 268 271 271 271 273 276 279 284 288 290 289 289
230 245 257 245 251 267 271 288 311 319 326 334 356 2 3 360 4 3 353 335 163 176 177 200 222 224 209 217 248 265 269 273 275 278 278 276 275 275 276 276 276 276 277 278 280 283 286 288 288
235 246 259 256 253 258 277 283 298 300 312 325 322 333 345 0 356 356 7 346 183 183 188 198 208 221 226 226 246 263 267 268 268 274 276 274 275 275 273 272 270 268 266 266 268 271 272 276 278
245 256 261 269 269 262 273 268 280 296 299 310 327 346 346 347 329 356 15 19 153 183 209 214 227 245 247 242 239 244 254 270 278 281 281 282 282 283 281 281 282 281 278 273 267 265 265 267 272
243 247 249 261 266 267 264 265 295 298 308 319 341 341 339 341 356 358 1 335 183 208 222 229 239 261 261 259 256 255 255 255 255 257 260 264 268 271 276 275 274 273 275 279 282 282 279 277 272
245 249 245 255 262 267 277 284 288 293 303 314 324 330 334 338 333 335 318 264 246 242 243 251 257 270 268 274 271 269 269 269 270 270 269 269 271 273 276 280 283 280 276 271 271 276 277 277 278
246 242 233 241 258 263 267 276 285 286 302 314 321 328 327 330 337 320 306 281 262 258 261 261 278 281 290 289 294 290 274 268 272 271 273 274 276 276 277 274 284 281 277 274 275 272 271 275 276
240 238 227 227 245 259 267 270 278 285 297 310 321 321 323 335 342 339 305 287 266 268 276 276 277 284 293 299 299 296 292 294 291 289 288 290 288 281 278 282 283 284 278 275 274 276 269 268 271
233 232 224 224 237 251 260 267 276 286 297 308 325 319 327 335 332 319 311 305 278 287 289 284 282 289 305 314 315 306 298 292 288 289 286 289 286 286 286 288 287 288 284 289 273 273 272 275 268
230 228 232 235 241 252 256 265 275 283 294 313 325 322 327 331 315 302 306 310 298 288 297 325 333 338 327 323 324 320 313 304 297 293 292 292 289 289 289 291 292 291 286 285 286 283 278 279 271
238 238 242 251 251 255 262 268 273 282 295 310 318 318 325 320 310 293 299 308 306 312 328 334 329 329 329 330 328 321 315 312 308 301 294 290 289 291 291 293 295 299 301 300 297 291 291 287 284
240 243 241 247 253 259 260 267 272 281 293 309 311 308 309 301 299 298 298 298 306 309 314 340 337 332 330 332 323 313 306 307 306 302 293 289 287 290 292 292 295 300 294 291 293 295 289 286 285
244 243 242 240 248 250 253 263 270 277 288 301 303 299 300 310 317 313 312 314 310 306 308 316 324 326 329 331 328 319 302 297 304 299 292 287 287 288 288 287 286 289 291 293 286 284 283 284 283
237 240 247 244 236 241 252 257 263 273 284 291 294 286 291 308 318 315 317 312 300 300 304 303 309 317 317 325 327 326 320 311 306 303 297 289 285 285 285 285 285 286 288 286 286 285 284 283 277
237 238 236 239 243 246 253 251 257 265 277 286 280 284 285 298 313 316 320 323 321 313 312 314 313 314 316 320 322 322 319 311 308 304 301 294 289 286 283 283 281 283 286 287 286 280 277 276 278
239 235 236 235 240 243 252 254 257 266 275 268 271 281 289 303 305 310 320 318 315 315 307 313 311 311 313 312 316 315 317 314 302 301 300 297 294 289 287 285 284 283 282 284 285 282 277 272 274
243 246 243 244 248 250 252 259 260 263 251 261 277 284 293 296 298 304 311 313 315 315 312 308 308 308 303 305 310 310 313 311 308 301 299 296 295 293 291 288 284 280 278 279 283 285 284 281 277
244 243 243 249 253 253 253 244 238 241 250 264 278 295 298 298 302 307 312 315 316 312 310 310 309 309 307 303 304 306 309 309 302 299 296 295 295 293 291 289 290 287 279 276 277 279 281 282 283
244 241 245 252 255 260 258 252 257 260 260 267 278 287 293 299 298 302 305 312 316 309 306 306 303 305 306 305 305 306 307 308 300 297 295 293 294 294 292 289 288 288 286 281 282 283 282 282 282
240 244 249 250 255 257 265 259 257 258 267 271 280 287 290 295 293 299 307 307 310 306 305 299 304 310 309 308 307 305 305 303 294 294 295 294 294 294 292 290 288 286 284 282 281 282 283 283 282
251 247 246 248 255 260 265 268 260 253 264 271 279 285 289 290 294 303 303 302 302 299 296 300 304 306 307 307 305 302 304 302 298 295 296 297 296 293 290 288 288 287 286 286 286 287 286 285 286
240 249 253 253 254 266 262 265 270 266 267 271 279 284 289 293 297 298 296 299 299 300 302 304 305 307 306 304 303 305 303 301 299 297 299 300 298 294 292 291 290 290 290 290 289 288 292 297 298
245 249 255 261 271 273 268 262 264 263 264 267 275 283 289 290 293 294 296 298 298 299 301 304 304 305 304 302 301 300 300 304 304 301 301 300 298 296 294 293 292 292 291 293 301 304 304 303 301
257 264 272 274 272 278 276 274 279 281 280 280 283 284 284 285 291 293 293 293 295 298 302 304 305 305 304 303 303 303 305 306 303 299 297 295 295 296 296 297 297 297 304 309 309 306 306 306 305
259 262 262 270 272 277 280 288 291 289 289 289 285 283 289 292 291 289 290 293 297 303 305 306 306 306 306 306 306 306 306 303 300 297 294 298 301 301 300 300 306 312 312 310 310 310 309 306 304
256 260 265 278 278 282 287 287 289 286 286 287 288 289 289 287 287 290 294 298 304 306 306 306 306 307 307 308 307 305 304 303 297 291 295 296 293 294 299 304 308 310 312 313 311 308 307 307 307
259 259 270 275 282 282 284 293 290 287 284 286 289 289 289 291 295 297 299 305 307 307 306 307 310 310 310 309 307 305 302 295 288 288 292 286 289 291 291 303 309 312 312 309 310 312 311 310 311
256 258 264 275 279 292 296 304 296 287 289 291 288 287 289 293 298 302 307 308 306 307 309 312 313 313 313 312 310 303 294 276 273 276 276 280 276 275 296 308 309 310 311 316 315 314 316 316 316
258 257 264 281 295 298 306 298 295 289 293 291 291 293 299 302 306 308 308 307 308 311 315 316 317 320 319 317 316 310 278 252 233 240 262 278 285 301 307 311 314 320 320 318 320 323 323 320 318